Port Isabel, TX

2:19 AM CDT on June 25, 2017 (GMT -0500)
Port Isabel-Cameron County

Weather History for KPIL - February, 2014

Change the Weather History Date:

Friday, February 28, 2014

  Actual Average (KBRO) Record (KBRO)
Temperature  
Mean Temperature 68 °F -  
Max Temperature 82 °F 73 °F 92 °F (1940)
Min Temperature 54 °F 55 °F 36 °F (1890)
Cooling Degree Days 3    
Growing Degree Days 18 (Base 50)    
Moisture  
Dew Point 60 °F    
Average Humidity 77    
Maximum Humidity 93    
Minimum Humidity 54    
Precipitation  
Precipitation 0.00 in - - ()
Sea Level Pressure  
Sea Level Pressure 29.89 in    
Wind  
Wind Speed 11 mph (South)    
Max Wind Speed 23 mph    
Max Gust Speed 36 mph    
Visibility 9 miles    
Events      
Averages and records for this station are not official NWS values.
T = Trace of Precipitation, MM = Missing Value Source: NWS Daily Summary

Daily Weather History Graph

Daily Weather History Graph

Search for Another Location

Airport or City:

Trip Planner

Search our weather history database for the weather conditions in past years. The results will help you decide how hot, cold, wet, or windy it might be!

Date:

Astronomy

Feb. 28, 2014 Rise Set
Actual Time 6:53 AM CST 6:30 PM CST
Civil Twilight 6:30 AM CST 6:53 PM CST
Nautical Twilight 6:03 AM CST 7:20 PM CST
Astronomical Twilight 5:37 AM CST 7:47 PM CST
Moon 6:08 AM CST (2/28) 6:06 PM CST (2/28)
Length of Visible Light 12h 23m
Length of Day
11h 36m
Waning Crescent, 1% of the Moon is Illuminated
Feb 28
Waning Crescent
Mar 1
New
Mar 8
First Quarter
Mar 16
Full
Mar 23
Last Quarter

Hourly Weather History & Observations

Time (CST) Temp. Heat Index Dew Point Humidity Pressure Visibility Wind Dir Wind Speed Gust Speed Precip Events Conditions
12:53 AM 57.0 °F - 51.1 °F 81% 29.96 in 10.0 mi South 3.5 mph - N/A   Scattered Clouds
1:53 AM 55.0 °F - 50.0 °F 83% 29.93 in 9.0 mi SSE 4.6 mph - N/A   Clear
2:53 AM 55.0 °F - 51.1 °F 86% 29.91 in 9.0 mi SSE 5.8 mph - N/A   Clear
3:53 AM 54.0 °F - 51.1 °F 90% 29.91 in 8.0 mi SSE 3.5 mph - N/A   Clear
4:53 AM 54.0 °F - 51.1 °F 90% 29.89 in 7.0 mi South 6.9 mph - N/A   Clear
5:53 AM 55.9 °F - 53.1 °F 90% 29.90 in 6.0 mi SSE 5.8 mph - N/A   Clear
6:53 AM 55.0 °F - 53.1 °F 93% 29.90 in 5.0 mi South 6.9 mph - N/A   Clear
7:53 AM 59.0 °F - 57.0 °F 93% 29.91 in 5.0 mi South 11.5 mph - N/A   Clear
8:53 AM 66.9 °F - 61.0 °F 81% 29.90 in 8.0 mi South 16.1 mph 23.0 mph N/A   Clear
9:53 AM 73.0 °F - 63.0 °F 71% 29.91 in 10.0 mi South 23.0 mph 35.7 mph N/A   Partly Cloudy
10:53 AM 75.9 °F - 63.0 °F 64% 29.91 in 10.0 mi South 20.7 mph 34.5 mph N/A   Partly Cloudy
11:53 AM 80.1 °F 81.5 °F 63.0 °F 56% 29.90 in 10.0 mi SSW 21.9 mph 32.2 mph N/A   Partly Cloudy
12:53 PM 81.0 °F 82.5 °F 64.0 °F 56% 29.87 in 10.0 mi South 23.0 mph 33.4 mph N/A   Clear
1:53 PM 82.0 °F 83.4 °F 64.0 °F 54% 29.86 in 10.0 mi SSW 21.9 mph 31.1 mph N/A   Clear
2:53 PM 82.0 °F 83.4 °F 64.0 °F 54% 29.83 in 10.0 mi South 21.9 mph 28.8 mph N/A   Clear
3:53 PM 82.0 °F 83.8 °F 64.9 °F 56% 29.83 in 10.0 mi South 16.1 mph 26.5 mph N/A   Clear
4:53 PM 79.0 °F - 64.9 °F 62% 29.83 in 10.0 mi South 19.6 mph 26.5 mph N/A   Clear
5:53 PM 75.0 °F - 64.9 °F 71% 29.84 in 10.0 mi South 18.4 mph 26.5 mph N/A   Clear
6:53 PM 72.0 °F - 66.0 °F 81% 29.85 in 10.0 mi South 15.0 mph - N/A   Clear
7:53 PM 71.1 °F - 66.0 °F 84% 29.87 in 10.0 mi South 13.8 mph - N/A   Clear
8:53 PM 71.1 °F - 66.0 °F 84% 29.90 in 10.0 mi South 12.7 mph - N/A   Clear
9:53 PM 70.0 °F - 66.0 °F 87% 29.92 in 10.0 mi South 10.4 mph - N/A   Clear
10:53 PM 70.0 °F - 66.0 °F 87% 29.92 in 10.0 mi South 10.4 mph - N/A   Clear
11:53 PM 69.1 °F - 66.0 °F 90% 29.92 in 10.0 mi South 11.5 mph - N/A   Clear